Tracking 29892 objects as of 21-Nov-2024
HD Live streaming from Space Station
objects crossing your sky now

STARLINK-32197

Track STARLINK-32197 now!
10-day predictions
STARLINK-32197 is classified as:


NORAD ID: 60416
Int'l Code: 2024-141U
Perigee: 453.5 km
Apogee: 455.2 km
Inclination: 53.2 °
Period: 93.5 minutes
Semi major axis: 6825 km
RCS: Unknown
Launch date: August 10, 2024
Source: United States (US)
Launch site: AIR FORCE EASTERN TEST RANGE (AFETR)
Your satellite tracking list
Your tracking list is empty




NASA's NSSDC Master Catalog

Two Line Element Set (TLE):
1 60416U 24141U   24325.27943067 -.00000622  00000-0 -55566-5 0  9997
2 60416  53.1619 280.6647 0001196  87.5628 272.5514 15.39624982 16967
Source of the keplerian elements: AFSPC